Tiempo cada hora Aliaga

Hoy, 28 Julio, Miércoles

Tiempo Temperatura Precipitaciones Viento Presión Humedad
00:00 +19°C° 0 mm 2 mps 658 mmHg 64%
01:00 +18°C° 0 mm 2 mps 658 mmHg 65%
02:00 +17°C° 0 mm 2 mps 658 mmHg 67%
03:00 +18°C° 0 mm 1 mps 658 mmHg 69%
04:00 +18°C° 0 mm 1 mps 658 mmHg 68%
05:00 +18°C° 0 mm 1 mps 658 mmHg 67%
06:00 +19°C° 0 mm 1 mps 658 mmHg 66%
07:00 +20°C° 0 mm 2 mps 659 mmHg 58%
08:00 +23°C° 0 mm 2 mps 659 mmHg 51%
09:00 +25°C° 0 mm 3 mps 660 mmHg 43%
10:00 +27°C° 0 mm 3 mps 660 mmHg 40%
11:00 +28°C° 0 mm 4 mps 660 mmHg 36%
12:00 +29°C° 0 mm 5 mps 660 mmHg 32%
13:00 +29°C° 0 mm 5 mps 660 mmHg 33%
14:00 +29°C° 0 mm 5 mps 660 mmHg 35%
15:00 +29°C° 0 mm 6 mps 660 mmHg 36%
16:00 +28°C° 0 mm 5 mps 660 mmHg 40%
17:00 +27°C° 0 mm 5 mps 659 mmHg 45%
18:00 +27°C° 0 mm 5 mps 659 mmHg 49%
19:00 +25°C° 0 mm 4 mps 659 mmHg 57%
20:00 +22°C° 0 mm 3 mps 659 mmHg 65%
21:00 +20°C° 0 mm 3 mps 659 mmHg 73%
22:00 +20°C° 0 mm 2 mps 659 mmHg 72%
23:00 +20°C° 0 mm 2 mps 659 mmHg 72%

Mañana, 29 Julio, Jueves

Tiempo Temperatura Precipitaciones Viento Presión Humedad
00:00 +19°C° 0 mm 2 mps 659 mmHg 71%
01:00 +19°C° 0 mm 2 mps 659 mmHg 72%
02:00 +18°C° 0 mm 2 mps 659 mmHg 72%
03:00 +18°C° 0 mm 2 mps 658 mmHg 73%
04:00 +18°C° 0 mm 2 mps 658 mmHg 70%
05:00 +19°C° 0 mm 2 mps 659 mmHg 67%
06:00 +19°C° 0 mm 2 mps 659 mmHg 65%
07:00 +23°C° 0 mm 2 mps 659 mmHg 54%
08:00 +25°C° 0 mm 3 mps 660 mmHg 44%
09:00 +28°C° 0 mm 4 mps 661 mmHg 34%
10:00 +29°C° 0 mm 4 mps 661 mmHg 30%
11:00 +32°C° 0 mm 5 mps 661 mmHg 26%
12:00 +33°C° 0 mm 6 mps 661 mmHg 23%
13:00 +34°C° 0 mm 6 mps 661 mmHg 22%
14:00 +34°C° 0 mm 7 mps 660 mmHg 21%
15:00 +35°C° 0 mm 7 mps 660 mmHg 20%
16:00 +34°C° 0 mm 7 mps 660 mmHg 20%
17:00 +34°C° 0 mm 7 mps 659 mmHg 20%
18:00 +33°C° 0 mm 6 mps 659 mmHg 20%
19:00 +30°C° 0 mm 5 mps 659 mmHg 27%
20:00 +27°C° 0 mm 4 mps 659 mmHg 33%
21:00 +25°C° 0 mm 3 mps 658 mmHg 40%
22:00 +24°C° 0 mm 3 mps 658 mmHg 42%
23:00 +24°C° 0 mm 3 mps 658 mmHg 44%

Pasado mañana, 30 Julio, Viernes

Tiempo Temperatura Precipitaciones Viento Presión Humedad
00:00 +22°C° 0 mm 3 mps 658 mmHg 47%
01:00 +21°C° 0 mm 3 mps 658 mmHg 48%
02:00 +21°C° 0 mm 2 mps 658 mmHg 49%
03:00 +20°C° 0 mm 2 mps 657 mmHg 50%
04:00 +20°C° 0 mm 2 mps 658 mmHg 48%
05:00 +20°C° 0 mm 2 mps 658 mmHg 45%
06:00 +21°C° 0 mm 3 mps 658 mmHg 42%
07:00 +23°C° 0 mm 4 mps 659 mmHg 35%
08:00 +26°C° 0 mm 5 mps 659 mmHg 29%
09:00 +28°C° 0 mm 6 mps 660 mmHg 22%
10:00 +29°C° 0 mm 6 mps 660 mmHg 20%
11:00 +30°C° 0 mm 6 mps 660 mmHg 17%
12:00 +33°C° 0 mm 6 mps 660 mmHg 15%
13:00 +33°C° 0 mm 6 mps 660 mmHg 14%
14:00 +34°C° 0 mm 6 mps 660 mmHg 13%
15:00 +34°C° 0 mm 7 mps 659 mmHg 12%
16:00 +33°C° 0 mm 6 mps 659 mmHg 14%
17:00 +32°C° 0 mm 6 mps 659 mmHg 15%
18:00 +30°C° 0 mm 5 mps 659 mmHg 17%
19:00 +27°C° 0 mm 4 mps 659 mmHg 26%
20:00 +24°C° 0 mm 3 mps 658 mmHg 35%
21:00 +20°C° 0 mm 2 mps 658 mmHg 45%
22:00 +20°C° 0 mm 1 mps 658 mmHg 47%
23:00 +19°C° 0 mm 1 mps 658 mmHg 50%

31 Julio, Sábado

Tiempo Temperatura Precipitaciones Viento Presión Humedad
00:00 +19°C° 0 mm 1 mps 657 mmHg 53%
01:00 +18°C° 0 mm 1 mps 657 mmHg 58%
02:00 +16°C° 0 mm 1 mps 657 mmHg 62%
03:00 +16°C° 0 mm 1 mps 656 mmHg 67%
04:00 +16°C° 0 mm 1 mps 656 mmHg 69%
05:00 +16°C° 0 mm 2 mps 656 mmHg 72%
06:00 +16°C° 0 mm 2 mps 656 mmHg 74%
07:00 +18°C° 0 mm 2 mps 657 mmHg 64%
08:00 +21°C° 0 mm 3 mps 657 mmHg 54%
09:00 +24°C° 0 mm 3 mps 658 mmHg 43%
10:00 +25°C° 0 mm 4 mps 658 mmHg 37%
11:00 +27°C° 0 mm 5 mps 658 mmHg 31%
12:00 +28°C° 0 mm 6 mps 658 mmHg 25%
13:00 +28°C° 0 mm 7 mps 657 mmHg 25%
14:00 +28°C° 0 mm 7 mps 657 mmHg 25%
15:00 +28°C° 0 mm 8 mps 657 mmHg 25%
16:00 +26°C° 0 mm 8 mps 657 mmHg 31%
17:00 +23°C° 0 mm 7 mps 657 mmHg 37%
18:00 +22°C° 0 mm 7 mps 656 mmHg 43%
19:00 +19°C° 0.1 mm 6 mps 657 mmHg 52%
20:00 +16°C° 0.1 mm 5 mps 657 mmHg 60%
21:00 +13°C° 0.1 mm 3 mps 657 mmHg 68%
22:00 +13°C° 0 mm 3 mps 657 mmHg 70%
23:00 +13°C° 0 mm 2 mps 656 mmHg 72%

1 Agosto, Domingo

Tiempo Temperatura Precipitaciones Viento Presión Humedad
00:00 +13°C° 0 mm 1 mps 656 mmHg 73%
01:00 +13°C° 0 mm 2 mps 656 mmHg 73%
02:00 +12°C° 0 mm 2 mps 656 mmHg 74%
03:00 +12°C° 0 mm 2 mps 656 mmHg 74%
04:00 +12°C° 0 mm 2 mps 656 mmHg 72%
05:00 +12°C° 0 mm 2 mps 656 mmHg 70%
06:00 +12°C° 0 mm 1 mps 656 mmHg 68%
07:00 +14°C° 0 mm 2 mps 657 mmHg 61%
08:00 +16°C° 0 mm 2 mps 657 mmHg 54%
09:00 +18°C° 0 mm 2 mps 658 mmHg 47%
10:00 +19°C° 0 mm 2 mps 658 mmHg 41%
11:00 +21°C° 0 mm 2 mps 658 mmHg 35%
12:00 +24°C° 0 mm 3 mps 658 mmHg 29%
13:00 +24°C° 0.1 mm 3 mps 658 mmHg 31%
14:00 +23°C° 0.1 mm 4 mps 658 mmHg 33%
15:00 +22°C° 0.1 mm 4 mps 658 mmHg 36%
16:00 +22°C° 0.3 mm 4 mps 657 mmHg 39%
17:00 +21°C° 0.3 mm 4 mps 657 mmHg 42%
18:00 +20°C° 0.3 mm 4 mps 657 mmHg 45%
19:00 +20°C° 0.1 mm 4 mps 657 mmHg 48%
20:00 +19°C° 0.1 mm 4 mps 657 mmHg 51%
21:00 +18°C° 0.1 mm 3 mps 658 mmHg 54%
22:00 +17°C° 0.1 mm 3 mps 657 mmHg 57%
23:00 +17°C° 0.1 mm 2 mps 657 mmHg 59%

2 Agosto, Lunes

Tiempo Temperatura Precipitaciones Viento Presión Humedad
00:00 +16°C° 0.1 mm 2 mps 657 mmHg 62%
01:00 +15°C° 0.1 mm 1 mps 657 mmHg 67%
02:00 +15°C° 0.1 mm 1 mps 657 mmHg 71%
03:00 +14°C° 0.1 mm 1 mps 656 mmHg 75%
04:00 +14°C° 0.2 mm 1 mps 656 mmHg 76%
05:00 +15°C° 0.2 mm 1 mps 656 mmHg 76%
06:00 +15°C° 0.2 mm 1 mps 657 mmHg 76%
07:00 +17°C° 0 mm 2 mps 657 mmHg 66%
08:00 +19°C° 0 mm 2 mps 657 mmHg 56%
09:00 +21°C° 0 mm 3 mps 658 mmHg 46%
10:00 +22°C° 0 mm 3 mps 658 mmHg 41%
11:00 +25°C° 0 mm 4 mps 658 mmHg 36%
12:00 +26°C° 0 mm 5 mps 658 mmHg 31%
13:00 +26°C° 0.1 mm 5 mps 657 mmHg 30%
14:00 +26°C° 0.1 mm 6 mps 657 mmHg 29%
15:00 +27°C° 0.1 mm 7 mps 657 mmHg 28%
16:00 +26°C° 0.1 mm 6 mps 656 mmHg 31%
17:00 +25°C° 0.1 mm 5 mps 656 mmHg 34%
18:00 +23°C° 0.1 mm 5 mps 656 mmHg 36%
19:00 +22°C° 0 mm 4 mps 656 mmHg 41%
20:00 +21°C° 0 mm 3 mps 656 mmHg 46%
21:00 +19°C° 0 mm 2 mps 656 mmHg 51%
22:00 +18°C° 0 mm 2 mps 656 mmHg 57%
23:00 +17°C° 0 mm 2 mps 656 mmHg 64%
Mostrar más

Necesitamos Su Consentimiento

Meteoprog y nuestros Proveedores de Servicios pueden almacenar y acceder a sus datos personales como cookies, identificadores de dispositivo u otras tecnologías similares de su dispositivo y procesar dichos datos para personalizar contenido y anuncios, además de ofrecer funciones de redes sociales y analizar el tráfico.

  • Almacenar y/o acceder a información en su dispositivo

    Se puede almacenar o acceder a cookies, identificadores de dispositivo u otra información de su dispositivo para los fines anteriormente indicados.

  • Anuncios y contenido personalizados, medición de anuncios y contenido, percepciones del público, y desarrollo de productos

    Los anuncios y el contenido pueden personalizarse en base a su perfil. Se pueden añadir más datos para personalizar mejor los anuncios y contenidos. Se puede medir el rendimiento de los anuncios y contenidos. Se puede obtener la percepción sobre el público que ha visto los anuncios y contenidos. Dichos datos pueden usarse para desarrollar o mejorar la experiencia del usuario, sistemas y software.

Al hacer clic en ‘Estoy De Acuerdo’ usted permitirá el uso de las cookies, identificadores de dispositivo, balizas web u otras tecnologías similares indicadas. Su configuración puede cambiarse desde el navegador de su dispositivo.

Para ciertos fines, los intereses legítimos pueden ser considerados por encima del consentimiento. Puede leer más sobre ello en nuestra Política de Privacidad y Cookies.